{"data":{"norad_id":68269,"intl_designator":"2026-055H","name":"STARLINK-36962","alt_names":[],"object_type":"PAYLOAD","status":"ACTIVE","operator":null,"country":"US","launch_date":"2026-03-19","launch_site_code":"AFETR","launch_vehicle":null,"mission":null,"orbit_class":"UNKNOWN","rcs_meters":null,"size_class":null,"mass_kg":null,"dimensions":null,"purposes":["comms"],"wikipedia_slug":null,"has_3d_model":false,"image_url":null,"decayed_at":null,"tle_current":{"epoch":"2026-05-25T04:49:37.506720Z","epoch_age_seconds":57672,"freshness":"FRESH","line1":"1 68269U 26055H   26145.20112855  .00020257  00000+0  60881-3 0  9992","line2":"2 68269  53.1584 322.5490 0001188  77.3689 282.7446 15.34412648 11667","mean_motion":15.34412648,"eccentricity":0.0001188,"inclination_deg":53.1584,"raan_deg":322.549,"arg_perigee_deg":77.3689,"mean_anomaly_deg":282.7446,"bstar":0.00060881,"rev_number":1166,"period_min":93.846984504262,"perigee_km":461.85296058931,"apogee_km":463.47833529846,"semimajor_km":6840.8026479439,"source":"CELESTRAK","updated_at":"2026-05-25T13:38:21.891405Z"}}}